{"data":{"norad_id":65640,"intl_designator":"2025-210U","name":"STARLINK-35091","alt_names":[],"object_type":"PAYLOAD","status":"ACTIVE","operator":null,"country":"US","launch_date":"2025-09-18","launch_site_code":"AFETR","launch_vehicle":null,"mission":null,"orbit_class":"UNKNOWN","rcs_meters":null,"size_class":null,"mass_kg":null,"dimensions":null,"purposes":["comms"],"wikipedia_slug":null,"has_3d_model":false,"image_url":null,"decayed_at":null,"tle_current":{"epoch":"2026-09-20T05:09:35.028000Z","epoch_age_seconds":133187,"freshness":"FRESH","line1":"1 65640U 25210U   26263.21498875  .00020440  00000+0  61375-3 0  9998","line2":"2 65640  53.1577 119.2832 0000959  94.9149 265.1963 15.34434821 57577","mean_motion":15.34434821,"eccentricity":9.59e-5,"inclination_deg":53.1577,"raan_deg":119.2832,"arg_perigee_deg":94.9149,"mean_anomaly_deg":265.1963,"bstar":0.00061375,"rev_number":5757,"period_min":93.845628389842,"perigee_km":461.94372016008,"apogee_km":463.25577346812,"semimajor_km":6840.7367468141,"source":"CELESTRAK","updated_at":"2026-09-21T09:00:35.676516Z"}}}